Year,Month,Day,Hour,Minute,Value (Times are PST for temperature in C)
2010,11,23,00,00,-8.20
2010,11,23,00,01,-8.20
2010,11,23,00,02,-8.20
2010,11,23,00,03,-8.20
2010,11,23,00,04,-8.20
2010,11,23,00,05,-8.20
2010,11,23,00,06,-8.20
2010,11,23,00,07,-8.20
2010,11,23,00,08,-8.30
2010,11,23,00,09,-8.20
2010,11,23,00,10,-8.20
2010,11,23,00,11,-8.20
2010,11,23,00,12,-8.20
2010,11,23,00,13,-8.30
2010,11,23,00,14,-8.30
2010,11,23,00,15,-8.20
2010,11,23,00,16,-8.20
2010,11,23,00,17,-8.20
2010,11,23,00,18,-8.20
2010,11,23,00,19,-8.20
2010,11,23,00,20,-8.20
2010,11,23,00,21,-8.20
2010,11,23,00,22,-8.20
2010,11,23,00,23,-8.20
2010,11,23,00,24,-8.20
2010,11,23,00,25,-8.20
2010,11,23,00,26,-8.20
2010,11,23,00,27,-8.20
2010,11,23,00,28,-8.10
2010,11,23,00,29,-8.00
2010,11,23,00,30,-8.00
2010,11,23,00,31,-7.90
2010,11,23,00,32,-7.90
2010,11,23,00,33,-7.90
2010,11,23,00,34,-7.80
2010,11,23,00,35,-7.80
2010,11,23,00,36,-7.80
2010,11,23,00,37,-7.70
2010,11,23,00,38,-7.70
2010,11,23,00,39,-7.70
2010,11,23,00,40,-7.70
2010,11,23,00,41,-7.70
2010,11,23,00,42,-7.70
2010,11,23,00,43,-7.80
2010,11,23,00,44,-7.80
2010,11,23,00,45,-7.80
2010,11,23,00,46,-7.80
2010,11,23,00,47,-7.90
2010,11,23,00,48,-7.90
2010,11,23,00,49,-7.90
2010,11,23,00,50,-7.90
2010,11,23,00,51,-8.00
2010,11,23,00,52,-8.00
2010,11,23,00,53,-8.00
2010,11,23,00,54,-8.10
2010,11,23,00,55,-8.00
2010,11,23,00,56,-8.10
2010,11,23,00,57,-8.10
2010,11,23,00,58,-8.00
2010,11,23,00,59,-8.00
2010,11,23,01,00,-8.00
2010,11,23,01,01,-8.10
2010,11,23,01,02,-8.10
2010,11,23,01,03,-8.10
2010,11,23,01,04,-8.10
2010,11,23,01,05,-8.00
2010,11,23,01,06,-8.00
2010,11,23,01,07,-8.00
2010,11,23,01,08,-8.00
2010,11,23,01,09,-8.00
2010,11,23,01,10,-8.00
2010,11,23,01,11,-8.00
2010,11,23,01,12,-7.90
2010,11,23,01,13,-7.90
2010,11,23,01,14,-7.90
2010,11,23,01,15,-7.80
2010,11,23,01,16,-7.80
2010,11,23,01,17,-7.80
2010,11,23,01,18,-7.70
2010,11,23,01,19,-7.70
2010,11,23,01,20,-7.70
2010,11,23,01,21,-7.70
2010,11,23,01,22,-7.70
2010,11,23,01,23,-7.70
2010,11,23,01,24,-7.70
2010,11,23,01,25,-7.70
2010,11,23,01,26,-7.70
2010,11,23,01,27,-7.70
2010,11,23,01,28,-7.60
2010,11,23,01,29,-7.60
2010,11,23,01,30,-7.60
2010,11,23,01,31,-7.60
2010,11,23,01,32,-7.60
2010,11,23,01,33,-7.60
2010,11,23,01,34,-7.60
2010,11,23,01,35,-7.60
2010,11,23,01,36,-7.60
2010,11,23,01,37,-7.60
2010,11,23,01,38,-7.50
2010,11,23,01,39,-7.50
2010,11,23,01,40,-7.50
2010,11,23,01,41,-7.40
2010,11,23,01,42,-7.40
2010,11,23,01,43,-7.40
2010,11,23,01,44,-7.40
2010,11,23,01,45,-7.40
2010,11,23,01,46,-7.40
2010,11,23,01,47,-7.40
2010,11,23,01,48,-7.30
2010,11,23,01,49,-7.30
2010,11,23,01,50,-7.30
2010,11,23,01,51,-7.30
2010,11,23,01,52,-7.30
2010,11,23,01,53,-7.30
2010,11,23,01,54,-7.30
2010,11,23,01,55,-7.20
2010,11,23,01,56,-7.20
2010,11,23,01,57,-7.10
2010,11,23,01,58,-7.10
2010,11,23,01,59,-7.10
2010,11,23,02,00,-7.10
2010,11,23,02,01,-7.10
2010,11,23,02,02,-7.10
2010,11,23,02,03,-7.10
2010,11,23,02,04,-7.10
2010,11,23,02,05,-7.10
2010,11,23,02,06,-7.10
2010,11,23,02,07,-7.10
2010,11,23,02,08,-7.10
2010,11,23,02,09,-7.10
2010,11,23,02,10,-7.10
2010,11,23,02,11,-7.10
2010,11,23,02,12,-7.10
2010,11,23,02,13,-7.10
2010,11,23,02,14,-7.10
2010,11,23,02,15,-7.20
2010,11,23,02,16,-7.20
2010,11,23,02,17,-7.20
2010,11,23,02,18,-7.10
2010,11,23,02,19,-7.10
2010,11,23,02,20,-7.10
2010,11,23,02,21,-7.10
2010,11,23,02,22,-7.10
2010,11,23,02,23,-7.00
2010,11,23,02,24,-7.00
2010,11,23,02,25,-7.00
2010,11,23,02,26,-6.90
2010,11,23,02,27,-6.90
2010,11,23,02,28,-6.90
2010,11,23,02,29,-6.80
2010,11,23,02,30,-6.80
2010,11,23,02,31,-6.80
2010,11,23,02,32,-6.80
2010,11,23,02,33,-6.80
2010,11,23,02,34,-6.90
2010,11,23,02,35,-6.90
2010,11,23,02,36,-6.90
2010,11,23,02,37,-6.90
2010,11,23,02,38,-6.80
2010,11,23,02,39,-6.80
2010,11,23,02,40,-6.80
2010,11,23,02,41,-6.80
2010,11,23,02,42,-6.80
2010,11,23,02,43,-6.80
2010,11,23,02,44,-6.80
2010,11,23,02,45,-6.80
2010,11,23,02,46,-6.80
2010,11,23,02,47,-6.80
2010,11,23,02,48,-6.80
2010,11,23,02,49,-6.80
2010,11,23,02,50,-6.80
2010,11,23,02,51,-6.80
2010,11,23,02,52,-6.80
2010,11,23,02,53,-6.80
2010,11,23,02,54,-6.80
2010,11,23,02,55,-6.80
2010,11,23,02,56,-6.80
2010,11,23,02,57,-6.80
2010,11,23,02,58,-6.80
2010,11,23,02,59,-6.80
2010,11,23,03,00,-6.80
2010,11,23,03,01,-6.80
2010,11,23,03,02,-6.80
2010,11,23,03,03,-6.80
2010,11,23,03,06,-6.80
2010,11,23,03,07,-6.80
2010,11,23,03,08,-6.80
2010,11,23,03,09,-6.80
2010,11,23,03,10,-6.80
2010,11,23,03,11,-6.80
2010,11,23,03,12,-6.80
2010,11,23,03,13,-6.80
2010,11,23,03,14,-6.80
2010,11,23,03,15,-6.80
2010,11,23,03,16,-6.80
2010,11,23,03,17,-6.80
2010,11,23,03,18,-6.80
2010,11,23,03,19,-6.80
2010,11,23,03,20,-6.80
2010,11,23,03,21,-6.80
2010,11,23,03,22,-6.80
2010,11,23,03,23,-6.80
2010,11,23,03,24,-6.80
2010,11,23,03,25,-6.80
2010,11,23,03,26,-6.80
2010,11,23,03,27,-6.80
2010,11,23,03,28,-6.80
2010,11,23,03,29,-6.80
2010,11,23,03,30,-6.80
2010,11,23,03,31,-6.70
2010,11,23,03,32,-6.70
2010,11,23,03,33,-6.70
2010,11,23,03,34,-6.70
2010,11,23,03,35,-6.70
2010,11,23,03,36,-6.70
2010,11,23,03,37,-6.70
2010,11,23,03,38,-6.70
2010,11,23,03,39,-6.70
2010,11,23,03,40,-6.70
2010,11,23,03,41,-6.70
2010,11,23,03,42,-6.80
2010,11,23,03,43,-6.80
2010,11,23,03,44,-6.80
2010,11,23,03,45,-6.80
2010,11,23,03,46,-6.80
2010,11,23,03,47,-6.80
2010,11,23,03,48,-6.80
2010,11,23,03,49,-6.80
2010,11,23,03,50,-6.80
2010,11,23,03,51,-6.80
2010,11,23,03,52,-6.80
2010,11,23,03,53,-6.80
2010,11,23,03,54,-6.80
2010,11,23,03,55,-6.80
2010,11,23,03,56,-6.80
2010,11,23,03,57,-6.80
2010,11,23,03,58,-6.80
2010,11,23,03,59,-6.80
2010,11,23,04,00,-6.80
2010,11,23,04,01,-6.80
2010,11,23,04,02,-6.80
2010,11,23,04,03,-6.80
2010,11,23,04,04,-6.80
2010,11,23,04,05,-6.80
2010,11,23,04,06,-6.80
2010,11,23,04,07,-6.80
2010,11,23,04,08,-6.80
2010,11,23,04,09,-6.80
2010,11,23,04,10,-6.80
2010,11,23,04,11,-6.80
2010,11,23,04,12,-6.80
2010,11,23,04,13,-6.80
2010,11,23,04,14,-6.80
2010,11,23,04,15,-6.80
2010,11,23,04,16,-6.80
2010,11,23,04,17,-6.80
2010,11,23,04,18,-6.80
2010,11,23,04,19,-6.80
2010,11,23,04,20,-6.80
2010,11,23,04,21,-6.80
2010,11,23,04,22,-6.80
2010,11,23,04,23,-6.80
2010,11,23,04,24,-6.80
2010,11,23,04,25,-6.80
2010,11,23,04,26,-6.70
2010,11,23,04,27,-6.70
2010,11,23,04,28,-6.70
2010,11,23,04,29,-6.70
2010,11,23,04,30,-6.70
2010,11,23,04,31,-6.70
2010,11,23,04,32,-6.70
2010,11,23,04,33,-6.70
2010,11,23,04,34,-6.70
2010,11,23,04,35,-6.70
2010,11,23,04,36,-6.70
2010,11,23,04,37,-6.60
2010,11,23,04,38,-6.60
2010,11,23,04,39,-6.60
2010,11,23,04,40,-6.60
2010,11,23,04,41,-6.70
2010,11,23,04,42,-6.70
2010,11,23,04,43,-6.70
2010,11,23,04,44,-6.70
2010,11,23,04,45,-6.70
2010,11,23,04,46,-6.70
2010,11,23,04,47,-6.70
2010,11,23,04,48,-6.70
2010,11,23,04,49,-6.70
2010,11,23,04,50,-6.70
2010,11,23,04,51,-6.70
2010,11,23,04,52,-6.60
2010,11,23,04,53,-6.60
2010,11,23,04,54,-6.60
2010,11,23,04,55,-6.60
2010,11,23,04,56,-6.60
2010,11,23,04,57,-6.60
2010,11,23,04,58,-6.60
2010,11,23,04,59,-6.60
2010,11,23,05,00,-6.60
2010,11,23,05,01,-6.60
2010,11,23,05,02,-6.60
2010,11,23,05,03,-6.60
2010,11,23,05,04,-6.60
2010,11,23,05,05,-6.60
2010,11,23,05,06,-6.60
2010,11,23,05,07,-6.60
2010,11,23,05,08,-6.70
2010,11,23,05,09,-6.70
2010,11,23,05,10,-6.70
2010,11,23,05,11,-6.80
2010,11,23,05,12,-6.80
2010,11,23,05,13,-6.80
2010,11,23,05,14,-6.80
2010,11,23,05,15,-6.80
2010,11,23,05,16,-6.80
2010,11,23,05,17,-6.80
2010,11,23,05,18,-6.80
2010,11,23,05,19,-6.80
2010,11,23,05,20,-6.80
2010,11,23,05,21,-6.80
2010,11,23,05,22,-6.80
2010,11,23,05,23,-6.80
2010,11,23,05,24,-6.80
2010,11,23,05,25,-6.80
2010,11,23,05,26,-6.80
2010,11,23,05,27,-6.80
2010,11,23,05,28,-6.80
2010,11,23,05,29,-6.80
2010,11,23,05,30,-6.80
2010,11,23,05,31,-6.80
2010,11,23,05,32,-6.70
2010,11,23,05,33,-6.70
2010,11,23,05,34,-6.70
2010,11,23,05,35,-6.70
2010,11,23,05,36,-6.60
2010,11,23,05,37,-6.60
2010,11,23,05,38,-6.60
2010,11,23,05,39,-6.60
2010,11,23,05,40,-6.70
2010,11,23,05,41,-6.70
2010,11,23,05,42,-6.70
2010,11,23,05,43,-6.70
2010,11,23,05,44,-6.80
2010,11,23,05,45,-6.80
2010,11,23,05,46,-6.80
2010,11,23,05,47,-6.80
2010,11,23,05,48,-6.80
2010,11,23,05,49,-6.80
2010,11,23,05,50,-6.80
2010,11,23,05,51,-6.80
2010,11,23,05,52,-6.80
2010,11,23,05,53,-6.90
2010,11,23,05,54,-6.90
2010,11,23,05,55,-6.90
2010,11,23,05,56,-7.00
2010,11,23,05,57,-7.00
2010,11,23,05,58,-7.00
2010,11,23,05,59,-7.00
2010,11,23,06,00,-7.10
2010,11,23,06,01,-7.10
2010,11,23,06,02,-7.10
2010,11,23,06,03,-7.10
2010,11,23,06,04,-7.10
2010,11,23,06,05,-7.20
2010,11,23,06,06,-7.20
2010,11,23,06,07,-7.30
2010,11,23,06,08,-7.30
2010,11,23,06,09,-7.30
2010,11,23,06,10,-7.40
2010,11,23,06,11,-7.50
2010,11,23,06,12,-7.60
2010,11,23,06,13,-7.60
2010,11,23,06,14,-7.70
2010,11,23,06,15,-7.80
2010,11,23,06,16,-7.80
2010,11,23,06,17,-7.90
2010,11,23,06,18,-7.90
2010,11,23,06,19,-8.00
2010,11,23,06,20,-8.10
2010,11,23,06,21,-8.10
2010,11,23,06,22,-8.10
2010,11,23,06,23,-8.20
2010,11,23,06,24,-8.20
2010,11,23,06,25,-8.20
2010,11,23,06,26,-8.20
2010,11,23,06,27,-8.20
2010,11,23,06,28,-8.20
2010,11,23,06,29,-8.20
2010,11,23,06,30,-8.20
2010,11,23,06,31,-8.10
2010,11,23,06,32,-8.10
2010,11,23,06,33,-8.10
2010,11,23,06,34,-8.00
2010,11,23,06,35,-8.00
2010,11,23,06,36,-7.90
2010,11,23,06,37,-7.90
2010,11,23,06,38,-7.80
2010,11,23,06,39,-7.70
2010,11,23,06,40,-7.70
2010,11,23,06,41,-7.60
2010,11,23,06,42,-7.60
2010,11,23,06,43,-7.70
2010,11,23,06,44,-7.70
2010,11,23,06,45,-7.70
2010,11,23,06,46,-7.70
2010,11,23,06,47,-7.80
2010,11,23,06,48,-7.80
2010,11,23,06,49,-7.90
2010,11,23,06,50,-8.00
2010,11,23,06,51,-8.10
2010,11,23,06,52,-8.10
2010,11,23,06,53,-8.20
2010,11,23,06,54,-8.20
2010,11,23,06,55,-8.30
2010,11,23,06,56,-8.40
2010,11,23,06,57,-8.40
2010,11,23,06,58,-8.50
2010,11,23,06,59,-8.50
2010,11,23,07,00,-8.50
2010,11,23,07,01,-8.50
2010,11,23,07,02,-8.50
2010,11,23,07,03,-8.60
2010,11,23,07,04,-8.60
2010,11,23,07,05,-8.60
2010,11,23,07,06,-8.70
2010,11,23,07,07,-8.70
2010,11,23,07,08,-8.70
2010,11,23,07,09,-8.70
2010,11,23,07,10,-8.70
2010,11,23,07,11,-8.80
2010,11,23,07,12,-8.90
2010,11,23,07,13,-8.90
2010,11,23,07,14,-8.90
2010,11,23,07,15,-9.00
2010,11,23,07,16,-9.00
2010,11,23,07,17,-9.10
2010,11,23,07,18,-9.10
2010,11,23,07,19,-9.20
2010,11,23,07,20,-9.20
2010,11,23,07,21,-9.10
2010,11,23,07,22,-9.10
2010,11,23,07,23,-9.20
2010,11,23,07,24,-9.10
2010,11,23,07,25,-9.10
2010,11,23,07,26,-9.10
2010,11,23,07,27,-9.00
2010,11,23,07,28,-9.00
2010,11,23,07,29,-8.90
2010,11,23,07,30,-9.00
2010,11,23,07,31,-9.00
2010,11,23,07,32,-9.00
2010,11,23,07,33,-9.00
2010,11,23,07,34,-9.00
2010,11,23,07,35,-8.90
2010,11,23,07,36,-8.90
2010,11,23,07,37,-8.90
2010,11,23,07,38,-8.80
2010,11,23,07,39,-8.80
2010,11,23,07,40,-8.80
2010,11,23,07,41,-8.80
2010,11,23,07,42,-8.80
2010,11,23,07,43,-8.80
2010,11,23,07,44,-8.80
2010,11,23,07,45,-8.90
2010,11,23,07,46,-8.90
2010,11,23,07,47,-8.90
2010,11,23,07,48,-9.00
2010,11,23,07,49,-9.00
2010,11,23,07,50,-9.10
2010,11,23,07,51,-9.10
2010,11,23,07,52,-9.10
2010,11,23,07,53,-9.20
2010,11,23,07,54,-9.20
2010,11,23,07,55,-9.20
2010,11,23,07,56,-9.20
2010,11,23,07,57,-9.20
2010,11,23,07,58,-9.20
2010,11,23,07,59,-9.20
2010,11,23,08,00,-9.20
2010,11,23,08,01,-9.20
2010,11,23,08,02,-9.20
2010,11,23,08,03,-9.30
2010,11,23,08,04,-9.30
2010,11,23,08,05,-9.20
2010,11,23,08,06,-9.20
2010,11,23,08,07,-9.20
2010,11,23,08,08,-9.20
2010,11,23,08,09,-9.20
2010,11,23,08,10,-9.20
2010,11,23,08,11,-9.20
2010,11,23,08,12,-9.20
2010,11,23,08,13,-9.20
2010,11,23,08,14,-9.30
2010,11,23,08,15,-9.30
2010,11,23,08,16,-9.20
2010,11,23,08,17,-9.20
2010,11,23,08,18,-9.20
2010,11,23,08,19,-9.20
2010,11,23,08,20,-9.20
2010,11,23,08,21,-9.20
2010,11,23,08,22,-9.20
2010,11,23,08,23,-9.20
2010,11,23,08,24,-9.20
2010,11,23,08,25,-9.30
2010,11,23,08,26,-9.30
2010,11,23,08,27,-9.30
2010,11,23,08,28,-9.30
2010,11,23,08,29,-9.20
2010,11,23,08,30,-9.20
2010,11,23,08,31,-9.10
2010,11,23,08,32,-9.10
2010,11,23,08,33,-9.20
2010,11,23,08,34,-9.10
2010,11,23,08,35,-9.10
2010,11,23,08,36,-9.10
2010,11,23,08,37,-9.10
2010,11,23,08,38,-9.10
2010,11,23,08,39,-9.00
2010,11,23,08,40,-9.00
2010,11,23,08,41,-9.00
2010,11,23,08,42,-8.90
2010,11,23,08,43,-8.80
2010,11,23,08,44,-8.70
2010,11,23,08,45,-8.60
2010,11,23,08,46,-8.50
2010,11,23,08,47,-8.40
2010,11,23,08,48,-8.30
2010,11,23,08,49,-8.30
2010,11,23,08,50,-8.20
2010,11,23,08,51,-8.10
2010,11,23,08,52,-8.00
2010,11,23,08,53,-8.00
2010,11,23,08,54,-7.90
2010,11,23,08,55,-7.70
2010,11,23,08,56,-7.60
2010,11,23,08,57,-7.50
2010,11,23,08,58,-7.40
2010,11,23,08,59,-7.40
2010,11,23,09,00,-7.30
2010,11,23,09,01,-7.10
2010,11,23,09,02,-6.90
2010,11,23,09,03,-6.80
2010,11,23,09,04,-6.60
2010,11,23,09,05,-6.50
2010,11,23,09,06,-6.40
2010,11,23,09,07,-6.20
2010,11,23,09,08,-6.00
2010,11,23,09,09,-5.90
2010,11,23,09,10,-5.80
2010,11,23,09,11,-5.70
2010,11,23,09,12,-5.60
2010,11,23,09,13,-5.50
2010,11,23,09,14,-5.40
2010,11,23,09,15,-5.30
2010,11,23,09,16,-5.30
2010,11,23,09,17,-5.20
2010,11,23,09,18,-5.20
2010,11,23,09,19,-5.20
2010,11,23,09,20,-5.20
2010,11,23,09,21,-5.10
2010,11,23,09,22,-5.00
2010,11,23,09,23,-5.00
2010,11,23,09,24,-5.00
2010,11,23,09,25,-4.90
2010,11,23,09,26,-4.90
2010,11,23,09,27,-4.80
2010,11,23,09,28,-4.80
2010,11,23,09,29,-4.80
2010,11,23,09,30,-4.80
2010,11,23,09,31,-4.80
2010,11,23,09,32,-4.70
2010,11,23,09,33,-4.70
2010,11,23,09,34,-4.70
2010,11,23,09,35,-4.70
2010,11,23,09,36,-4.70
2010,11,23,09,37,-4.70
2010,11,23,09,38,-4.70
2010,11,23,09,39,-4.70
2010,11,23,09,40,-4.70
2010,11,23,09,41,-4.70
2010,11,23,09,42,-4.60
2010,11,23,09,43,-4.60
2010,11,23,09,44,-4.60
2010,11,23,09,45,-4.60
2010,11,23,09,46,-4.50
2010,11,23,09,47,-4.50
2010,11,23,09,48,-4.50
2010,11,23,09,49,-4.50
2010,11,23,09,50,-4.50
2010,11,23,09,51,-4.50
2010,11,23,09,52,-4.50
2010,11,23,09,53,-4.40
2010,11,23,09,54,-4.40
2010,11,23,09,55,-4.40
2010,11,23,09,56,-4.50
2010,11,23,09,57,-4.50
2010,11,23,09,58,-4.50
2010,11,23,09,59,-4.50
2010,11,23,10,00,-4.50
2010,11,23,10,01,-4.50
2010,11,23,10,02,-4.50
2010,11,23,10,03,-4.50
2010,11,23,10,04,-4.50
2010,11,23,10,05,-4.50
2010,11,23,10,06,-4.50
2010,11,23,10,07,-4.50
2010,11,23,10,08,-4.50
2010,11,23,10,09,-4.50
2010,11,23,10,10,-4.50
2010,11,23,10,11,-4.50
2010,11,23,10,12,-4.50
2010,11,23,10,13,-4.50
2010,11,23,10,14,-4.50
2010,11,23,10,15,-4.50
2010,11,23,10,16,-4.50
2010,11,23,10,17,-4.50
2010,11,23,10,18,-4.50
2010,11,23,10,19,-4.50
2010,11,23,10,20,-4.50
2010,11,23,10,21,-4.40
2010,11,23,10,22,-4.40
2010,11,23,10,23,-4.40
2010,11,23,10,24,-4.40
2010,11,23,10,25,-4.30
2010,11,23,10,26,-4.30
2010,11,23,10,27,-4.30
2010,11,23,10,28,-4.20
2010,11,23,10,29,-4.20
2010,11,23,10,30,-4.20
2010,11,23,10,31,-4.20
2010,11,23,10,32,-4.10
2010,11,23,10,33,-4.10
2010,11,23,10,34,-4.10
2010,11,23,10,35,-4.10
2010,11,23,10,36,-4.00
2010,11,23,10,37,-4.00
2010,11,23,10,38,-4.00
2010,11,23,10,39,-3.90
2010,11,23,10,40,-3.90
2010,11,23,10,41,-3.90
2010,11,23,10,42,-3.80
2010,11,23,10,43,-3.80
2010,11,23,10,44,-3.80
2010,11,23,10,45,-3.80
2010,11,23,10,46,-3.80
2010,11,23,10,47,-3.80
2010,11,23,10,48,-3.80
2010,11,23,10,49,-3.80
2010,11,23,10,50,-3.80
2010,11,23,10,51,-3.80
2010,11,23,10,52,-3.80
2010,11,23,10,53,-3.80
2010,11,23,10,54,-3.80
2010,11,23,10,55,-3.80
2010,11,23,10,56,-3.80
2010,11,23,10,57,-3.80
2010,11,23,10,58,-3.80
2010,11,23,10,59,-3.80
2010,11,23,11,00,-3.70
2010,11,23,11,01,-3.70
2010,11,23,11,02,-3.70
2010,11,23,11,03,-3.70
2010,11,23,11,04,-3.70
2010,11,23,11,05,-3.70
2010,11,23,11,06,-3.70
2010,11,23,11,07,-3.70
2010,11,23,11,08,-3.70
2010,11,23,11,09,-3.70
2010,11,23,11,10,-3.70
2010,11,23,11,11,-3.70
2010,11,23,11,12,-3.60
2010,11,23,11,13,-3.60
2010,11,23,11,14,-3.60
2010,11,23,11,15,-3.60
2010,11,23,11,16,-3.50
2010,11,23,11,17,-3.50
2010,11,23,11,18,-3.60
2010,11,23,11,19,-3.60
2010,11,23,11,20,-3.60
2010,11,23,11,21,-3.70
2010,11,23,11,22,-3.70
2010,11,23,11,23,-3.70
2010,11,23,11,24,-3.70
2010,11,23,11,25,-3.70
2010,11,23,11,26,-3.70
2010,11,23,11,27,-3.70
2010,11,23,11,28,-3.70
2010,11,23,11,29,-3.70
2010,11,23,11,30,-3.70
2010,11,23,11,31,-3.70
2010,11,23,11,32,-3.70
2010,11,23,11,33,-3.70
2010,11,23,11,34,-3.70
2010,11,23,11,35,-3.70
2010,11,23,11,36,-3.70
2010,11,23,11,37,-3.70
2010,11,23,11,38,-3.70
2010,11,23,11,39,-3.70
2010,11,23,11,40,-3.70
2010,11,23,11,41,-3.70
2010,11,23,11,42,-3.60
2010,11,23,11,43,-3.60
2010,11,23,11,44,-3.60
2010,11,23,11,45,-3.60
2010,11,23,11,46,-3.60
2010,11,23,11,47,-3.60
2010,11,23,11,48,-3.60
2010,11,23,11,49,-3.60
2010,11,23,11,50,-3.60
2010,11,23,11,51,-3.60
2010,11,23,11,52,-3.60
2010,11,23,11,53,-3.60
2010,11,23,11,54,-3.60
2010,11,23,11,55,-3.60
2010,11,23,11,56,-3.60
2010,11,23,11,57,-3.60
2010,11,23,11,58,-3.60
2010,11,23,11,59,-3.60
2010,11,23,12,00,-3.60
2010,11,23,12,01,-3.60
2010,11,23,12,02,-3.50
2010,11,23,12,03,-3.60
2010,11,23,12,04,-3.60
2010,11,23,12,05,-3.60
2010,11,23,12,06,-3.60
2010,11,23,12,07,-3.60
2010,11,23,12,08,-3.60
2010,11,23,12,09,-3.60
2010,11,23,12,10,-3.60
2010,11,23,12,11,-3.60
2010,11,23,12,12,-3.60
2010,11,23,12,13,-3.60
2010,11,23,12,14,-3.60
2010,11,23,12,15,-3.60
2010,11,23,12,16,-3.60
2010,11,23,12,17,-3.60
2010,11,23,12,18,-3.60
2010,11,23,12,19,-3.60
2010,11,23,12,20,-3.60
2010,11,23,12,21,-3.60
2010,11,23,12,22,-3.60
2010,11,23,12,23,-3.60
2010,11,23,12,24,-3.60
2010,11,23,12,25,-3.60
2010,11,23,12,26,-3.60
2010,11,23,12,27,-3.60
2010,11,23,12,28,-3.60
2010,11,23,12,29,-3.60
2010,11,23,12,30,-3.60
2010,11,23,12,31,-3.50
2010,11,23,12,32,-3.50
2010,11,23,12,33,-3.50
2010,11,23,12,34,-3.50
2010,11,23,12,35,-3.50
2010,11,23,12,36,-3.50
2010,11,23,12,37,-3.50
2010,11,23,12,38,-3.50
2010,11,23,12,39,-3.60
2010,11,23,12,40,-3.50
2010,11,23,12,41,-3.50
2010,11,23,12,42,-3.50
2010,11,23,12,43,-3.50
2010,11,23,12,44,-3.50
2010,11,23,12,45,-3.50
2010,11,23,12,46,-3.50
2010,11,23,12,47,-3.50
2010,11,23,12,48,-3.50
2010,11,23,12,49,-3.50
2010,11,23,12,50,-3.50
2010,11,23,12,51,-3.50
2010,11,23,12,52,-3.40
2010,11,23,12,53,-3.40
2010,11,23,12,54,-3.40
2010,11,23,12,55,-3.40
2010,11,23,12,56,-3.40
2010,11,23,12,57,-3.40
2010,11,23,12,58,-3.40
2010,11,23,12,59,-3.40
2010,11,23,13,00,-3.40
2010,11,23,13,01,-3.40
2010,11,23,13,02,-3.40
2010,11,23,13,03,-3.40
2010,11,23,13,04,-3.30
2010,11,23,13,05,-3.30
2010,11,23,13,06,-3.30
2010,11,23,13,07,-3.30
2010,11,23,13,08,-3.30
2010,11,23,13,09,-3.20
2010,11,23,13,10,-3.20
2010,11,23,13,11,-3.20
2010,11,23,13,12,-3.20
2010,11,23,13,13,-3.20
2010,11,23,13,14,-3.20
2010,11,23,13,15,-3.20
2010,11,23,13,16,-3.20
2010,11,23,13,17,-3.20
2010,11,23,13,18,-3.20
2010,11,23,13,19,-3.20
2010,11,23,13,20,-3.10
2010,11,23,13,21,-3.10
2010,11,23,13,22,-3.00
2010,11,23,13,23,-2.90
2010,11,23,13,24,-2.90
2010,11,23,13,25,-2.80
2010,11,23,13,26,-2.70
2010,11,23,13,27,-2.60
2010,11,23,13,28,-2.50
2010,11,23,13,29,-2.40
2010,11,23,13,30,-2.30
2010,11,23,13,31,-2.30
2010,11,23,13,32,-2.20
2010,11,23,13,33,-2.20
2010,11,23,13,34,-2.30
2010,11,23,13,35,-2.40
2010,11,23,13,36,-2.50
2010,11,23,13,37,-2.50
2010,11,23,13,38,-2.60
2010,11,23,13,39,-2.70
2010,11,23,13,40,-2.80
2010,11,23,13,41,-2.80
2010,11,23,13,42,-2.80
2010,11,23,13,43,-2.80
2010,11,23,13,44,-2.80
2010,11,23,13,45,-2.80
2010,11,23,13,46,-2.80
2010,11,23,13,47,-2.80
2010,11,23,13,48,-2.80
2010,11,23,13,49,-2.70
2010,11,23,13,50,-2.80
2010,11,23,13,51,-2.70
2010,11,23,13,52,-2.70
2010,11,23,13,53,-2.60
2010,11,23,13,54,-2.50
2010,11,23,13,55,-2.30
2010,11,23,13,56,-2.30
2010,11,23,13,57,-2.20
2010,11,23,13,58,-2.20
2010,11,23,13,59,-2.20
2010,11,23,14,00,-2.20
2010,11,23,14,01,-2.30
2010,11,23,14,02,-2.30
2010,11,23,14,03,-2.40
2010,11,23,14,04,-2.40
2010,11,23,14,05,-2.50
2010,11,23,14,06,-2.50
2010,11,23,14,07,-2.50
2010,11,23,14,08,-2.60
2010,11,23,14,09,-2.60
2010,11,23,14,10,-2.70
2010,11,23,14,11,-2.70
2010,11,23,14,12,-2.90
2010,11,23,14,13,-2.90
2010,11,23,14,14,-3.00
2010,11,23,14,15,-3.10
2010,11,23,14,16,-3.10
2010,11,23,14,17,-3.10
2010,11,23,14,18,-3.00
2010,11,23,14,19,-3.00
2010,11,23,14,20,-2.90
2010,11,23,14,21,-2.80
2010,11,23,14,22,-2.70
2010,11,23,14,23,-2.70
2010,11,23,14,24,-2.70
2010,11,23,14,25,-2.70
2010,11,23,14,26,-2.70
2010,11,23,14,27,-2.70
2010,11,23,14,28,-2.70
2010,11,23,14,29,-2.70
2010,11,23,14,30,-2.70
2010,11,23,14,31,-2.60
2010,11,23,14,32,-2.60
2010,11,23,14,33,-2.70
2010,11,23,14,34,-2.70
2010,11,23,14,35,-2.70
2010,11,23,14,36,-2.70
2010,11,23,14,37,-2.70
2010,11,23,14,38,-2.70
2010,11,23,14,39,-2.70
2010,11,23,14,40,-2.70
2010,11,23,14,41,-2.70
2010,11,23,14,42,-2.70
2010,11,23,14,43,-2.70
2010,11,23,14,44,-2.70
2010,11,23,14,45,-2.70
2010,11,23,14,46,-2.70
2010,11,23,14,47,-2.80
2010,11,23,14,48,-2.90
2010,11,23,14,49,-3.00
2010,11,23,14,50,-3.10
2010,11,23,14,51,-3.20
2010,11,23,14,52,-3.20
2010,11,23,14,53,-3.20
2010,11,23,14,54,-3.20
2010,11,23,14,55,-3.20
2010,11,23,14,56,-3.20
2010,11,23,14,57,-3.20
2010,11,23,14,58,-3.20
2010,11,23,14,59,-3.20
2010,11,23,15,00,-3.20
2010,11,23,15,01,-3.20
2010,11,23,15,02,-3.20
2010,11,23,15,03,-3.20
2010,11,23,15,04,-3.20
2010,11,23,15,05,-3.20
2010,11,23,15,06,-3.20
2010,11,23,15,07,-3.20
2010,11,23,15,08,-3.20
2010,11,23,15,09,-3.20
2010,11,23,15,10,-3.20
2010,11,23,15,11,-3.20
2010,11,23,15,12,-3.20
2010,11,23,15,13,-3.20
2010,11,23,15,14,-3.10
2010,11,23,15,15,-3.10
2010,11,23,15,16,-3.10
2010,11,23,15,17,-3.10
2010,11,23,15,18,-3.10
2010,11,23,15,19,-3.10
2010,11,23,15,20,-3.10
2010,11,23,15,21,-3.10
2010,11,23,15,22,-3.10
2010,11,23,15,23,-3.10
2010,11,23,15,24,-3.10
2010,11,23,15,25,-3.10
2010,11,23,15,26,-3.10
2010,11,23,15,27,-3.20
2010,11,23,15,28,-3.20
2010,11,23,15,29,-3.20
2010,11,23,15,30,-3.20
2010,11,23,15,31,-3.30
2010,11,23,15,32,-3.30
2010,11,23,15,33,-3.40
2010,11,23,15,34,-3.40
2010,11,23,15,35,-3.50
2010,11,23,15,36,-3.50
2010,11,23,15,37,-3.60
2010,11,23,15,38,-3.60
2010,11,23,15,39,-3.70
2010,11,23,15,40,-3.70
2010,11,23,15,41,-3.70
2010,11,23,15,42,-3.80
2010,11,23,15,43,-3.80
2010,11,23,15,44,-3.90
2010,11,23,15,45,-3.90
2010,11,23,15,46,-4.00
2010,11,23,15,47,-4.10
2010,11,23,15,48,-4.10
2010,11,23,15,49,-4.10
2010,11,23,15,50,-4.10
2010,11,23,15,51,-4.20
2010,11,23,15,52,-4.20
2010,11,23,15,53,-4.20
2010,11,23,15,54,-4.20
2010,11,23,15,55,-4.30
2010,11,23,15,56,-4.30
2010,11,23,15,57,-4.30
2010,11,23,15,58,-4.30
2010,11,23,15,59,-4.30
2010,11,23,16,00,-4.40
2010,11,23,16,01,-4.40
2010,11,23,16,02,-4.40
2010,11,23,16,03,-4.50
2010,11,23,16,04,-4.50
2010,11,23,16,05,-4.50
2010,11,23,16,06,-4.60
2010,11,23,16,07,-4.60
2010,11,23,16,08,-4.60
2010,11,23,16,09,-4.60
2010,11,23,16,10,-4.60
2010,11,23,16,11,-4.60
2010,11,23,16,12,-4.70
2010,11,23,16,13,-4.70
2010,11,23,16,14,-4.70
2010,11,23,16,15,-4.70
2010,11,23,16,16,-4.70
2010,11,23,16,17,-4.70
2010,11,23,16,18,-4.80
2010,11,23,16,19,-4.80
2010,11,23,16,20,-4.80
2010,11,23,16,21,-4.80
2010,11,23,16,22,-4.90
2010,11,23,16,25,-5.00
2010,11,23,16,26,-5.00
2010,11,23,16,27,-5.00
2010,11,23,16,28,-5.00
2010,11,23,16,29,-5.00
2010,11,23,16,30,-5.00
2010,11,23,16,31,-5.00
2010,11,23,16,32,-5.00
2010,11,23,16,33,-5.00
2010,11,23,16,34,-5.00
2010,11,23,16,35,-5.00
2010,11,23,16,36,-5.10
2010,11,23,16,37,-5.10
2010,11,23,16,38,-5.10
2010,11,23,16,39,-5.10
2010,11,23,16,40,-5.10
2010,11,23,16,41,-5.10
2010,11,23,16,42,-5.10
2010,11,23,16,43,-5.20
2010,11,23,16,44,-5.20
2010,11,23,16,45,-5.30
2010,11,23,16,46,-5.30
2010,11,23,16,47,-5.30
2010,11,23,16,48,-5.30
2010,11,23,16,49,-5.40
2010,11,23,16,50,-5.40
2010,11,23,16,51,-5.50
2010,11,23,16,52,-5.50
2010,11,23,16,53,-5.60
2010,11,23,16,54,-5.60
2010,11,23,16,55,-5.70
2010,11,23,16,56,-5.70
2010,11,23,16,57,-5.70
2010,11,23,16,58,-5.80
2010,11,23,16,59,-5.80
2010,11,23,17,00,-5.80
2010,11,23,17,01,-5.80
2010,11,23,17,02,-5.90
2010,11,23,17,03,-5.90
2010,11,23,17,04,-5.90
2010,11,23,17,05,-6.00
2010,11,23,17,06,-6.00
2010,11,23,17,07,-6.00
2010,11,23,17,08,-6.10
2010,11,23,17,09,-6.10
2010,11,23,17,10,-6.20
2010,11,23,17,11,-6.20
2010,11,23,17,12,-6.30
2010,11,23,17,13,-6.30
2010,11,23,17,14,-6.40
2010,11,23,17,15,-6.40
2010,11,23,17,16,-6.30
2010,11,23,17,17,-6.30
2010,11,23,17,18,-6.30
2010,11,23,17,19,-6.30
2010,11,23,17,20,-6.30
2010,11,23,17,21,-6.40
2010,11,23,17,22,-6.40
2010,11,23,17,23,-6.40